AirNav   Air Wisconsin Up To $57,000 Bonus
 
 1270 users online  

MU05 Arch Heliport
St Louis, Missouri, USA

GOING TO ST LOUIS?


FAA INFORMATION EFFECTIVE 26 MARCH 2020

Location

FAA Identifier: MU05
Lat/Long: 38-37-30.8800N 090-12-47.7600W
38-37.514667N 090-12.796000W
38.6252444,-90.2132667
(estimated)
Elevation: 500 ft. / 152 m (estimated)
Variation: 01E (1990)
Time zone: UTC -5 (UTC -6 during Standard Time)
Zip code: 63104

Heliport Operations

Heliport use: Private use, MEDICAL USE.
Activation date: 12/1993
Control tower: no
ARTCC: KANSAS CITY CENTER
FSS: SAINT LOUIS FLIGHT SERVICE STATION
Attendance: CONTINUOUS
Wind indicator: yes
Segmented circle: no

Heliport Communications

WX ASOS at CPS (4 nm SE): PHONE 618-332-0001
WX ASOS at STL (10 nm NW): 125.025 (314-890-4790)
WX AWOS-3 at ALN (18 nm NE): 128.0 (618-259-7231)

Nearby radio navigation aids

VOR radial/distance  VOR name  Freq  Var
TOYr240/15.4TROY VORTAC116.0004E
STLr137/18.9ST LOUIS VORTAC117.4001E
FTZr092/35.8FORISTELL VORTAC110.8005E

 
NDB name  Hdg/Dist  Freq  Var  ID
ACORE311/9.635000ECP -.-. .--.
CIVIC MEMORIAL206/17.626301WCVM -.-. ...- --

Heliport Services

Runway Information

Helipad H1

Dimensions: 30 x 30 ft. / 9 x 9 m
Surface: concrete
Latitude: 38-37.514667N
Longitude: 090-12.796000W
Elevation: 500.0 ft.
Traffic pattern: leftleft

Heliport Ownership and Management from official FAA records

Ownership: Privately-owned
Owner: ARCH
2207 SCOTT AVE
ST LOUIS, MO 63103
Phone 314-640-3354
Manager: ROBERT GROVES
2207 SCOTT AVE
ST LOUIS, MO 63103
Phone (314) 486-2783

Additional Remarks

A52-H1 45' BLDG 250' SW.
FOR CD CTC ST LOUIS APCH AT 314-890-1018.

Instrument Procedures

There are no published instrument procedures at MU05.

Some nearby airports with instrument procedures:

KCPS - St Louis Downtown Airport (4 nm SE)
KSTL - St Louis Lambert International Airport (10 nm NW)
1H0 - Creve Coeur Airport (15 nm NW)
KALN - St Louis Regional Airport (18 nm NE)
KBLV - Scott Air Force Base/MidAmerica Airport (18 nm E)
 
Loc | Ops | Rwys | IFR | FBO | Links
Com | Nav | Svcs | Stats | Notes

Kansas City Aviation Department
 
Area around MU05 (Arch Heliport)
 
Road maps at: MapQuest Bing Google
 
Aerial photo
No photo
 
Sectional chart

 
Airport distance calculator
Flying to Arch Heliport? Find the distance to fly.

From to MU05

Sunrise and sunset
Times for 31-Mar-2020
 Local
(UTC-5)
 Zulu
(UTC)
Morning civil twilight06:2011:20
Sunrise06:4711:47
Sunset19:2300:23
Evening civil twilight19:5000:50

Current date and time
Zulu (UTC)  31-Mar-2020 19:43:56
Local (UTC-5)  31-Mar-2020 14:43:56
 
METAR
KCPS 
5nm SE 
311853Z 36008KT 10SM FEW060 16/03 A2994 RMK AO2 SLP139 T01560033
KSTL 
10nm NW 
311851Z 34007G17KT 10SM SCT050 SCT250 16/02 A2995 RMK AO2 SLP141 T01560022
KALN 
18nm NE 
311847Z 02007KT 10SM BKN047 BKN200 14/04 A2997
KBLV 
19nm E 
311906Z 01009G17KT 10SM FEW050 15/04 A2994 RMK SLP142 $
TAF
KCPS 
5nm SE 
311730Z 3118/0118 02005KT P6SM SCT045 BKN250 FM010200 02005KT P6SM FEW250
KSTL 
10nm NW 
311730Z 3118/0124 36005KT P6SM SCT045 BKN120 FM010600 06005KT P6SM SKC FM012000 13005KT P6SM FEW200
KBLV 
19nm E 
311600Z 3116/0122 05009KT 9999 SCT040 QNH2996INS BECMG 3118/3119 35012G18KT 9999 BKN035 QNH2992INS TX14/3123Z TN03/0112Z WND 04009 AFT 0101
NOTAMs
Click for the latest NOTAMs
NOTAMs are issued by the DoD/FAA and will open in a separate window not controlled by AirNav.

 

 
 

Would you like to see your business listed on this page?

 If your business provides an interesting product or service to pilots, flight crews, aircraft, or users of the Arch Heliport, you should consider listing it here.  To start the listing process, click on the button below
 
Add a business
 

Other Pages about Arch Heliport

members.aol.com/...
 
Update a link
 
Copyright © AirNav, LLC. All rights reserved. Privacy Policy  Contact